MDT,Max TemperatureF,Mean TemperatureF,Min TemperatureF,Max Dew PointF,MeanDew PointF,Min DewpointF,Max Humidity, Mean Humidity, Min Humidity, Max Sea Level PressureIn, Mean Sea Level PressureIn, Min Sea Level PressureIn, Max VisibilityMiles, Mean VisibilityMiles, Min VisibilityMiles, Max Wind SpeedMPH, Mean Wind SpeedMPH, Max Gust SpeedMPH,PrecipitationIn, CloudCover, Events, WindDirDegrees
2011-10-1,79,59,38,36,33,28,65,40,21,30.14,30.09,30.05,10,9,5,17,11,24,0.00,0,,164
2011-10-2,86,62,37,38,35,31,79,40,17,30.08,30.01,29.94,10,9,6,17,10,22,0.00,0,,153
2011-10-3,89,67,45,40,35,28,63,36,13,30.06,29.97,29.92,10,9,7,14,8,22,0.00,0,,192
2011-10-4,85,71,57,41,33,24,49,30,11,29.97,29.89,29.83,10,10,8,34,17,46,0.00,0,,182
2011-10-5,76,66,56,53,44,28,78,50,27,29.82,29.71,29.61,10,10,10,34,23,47,0.00,1,,171
2011-10-6,83,66,49,54,44,26,84,50,19,29.71,29.55,29.37,10,9,4,46,29,62,T,4,Rain,188
2011-10-7,75,59,42,42,32,20,62,39,18,29.81,29.75,29.66,10,10,10,17,9,30,0.04,3,Rain,215
2011-10-8,60,51,42,52,41,36,94,78,62,30.09,29.91,29.70,10,9,4,22,13,28,0.03,6,Rain,292
2011-10-9,56,45,34,40,38,33,89,74,53,30.12,30.08,30.00,10,9,6,23,16,28,0.00,5,,308
2011-10-10,68,49,30,51,37,25,97,73,20,30.06,29.95,29.81,10,7,0,15,6,,0.00,1,Fog,184
2011-10-11,70,56,42,50,40,32,97,65,25,29.84,29.77,29.70,10,7,0,15,8,18,0.00,2,Fog,322
2011-10-12,66,50,34,38,32,27,79,47,24,30.07,29.94,29.81,10,9,7,26,14,39,T,0,,323
2011-10-13,77,55,32,32,26,21,79,45,13,30.07,29.97,29.85,10,10,10,16,10,22,0.00,0,,268
2011-10-14,65,48,31,31,28,24,76,48,24,30.10,30.04,29.92,10,10,9,14,7,17,0.00,0,,106
2011-10-15,85,64,42,35,27,21,60,33,10,30.05,29.94,29.81,10,10,9,17,13,18,0.00,0,,221
2011-10-16,61,50,38,36,31,24,68,51,27,30.13,30.02,29.78,10,9,7,18,12,24,0.00,0,,69
2011-10-17,52,42,32,45,35,30,93,79,54,30.26,30.08,29.91,10,9,3,28,12,38,0.25,5,Rain,305
2011-10-18,56,44,31,31,27,22,89,61,29,30.35,30.27,30.23,10,9,7,22,12,32,0.00,1,,325
2011-10-19,59,43,27,29,24,22,81,57,26,30.27,30.15,30.01,10,10,7,12,8,,0.00,0,,275
2011-10-20,70,48,25,29,27,21,85,52,20,30.09,30.00,29.93,10,10,10,16,9,21,0.00,0,,210
2011-10-21,77,56,35,35,27,19,76,43,12,30.15,30.07,30.01,10,8,4,12,9,20,0.00,0,,217
2011-10-22,72,54,36,36,31,28,73,47,20,30.10,30.04,30.00,10,9,6,15,8,20,0.00,1,,315
2011-10-23,73,55,36,33,29,25,76,44,17,30.10,30.05,30.02,10,9,6,15,9,24,0.00,0,,254
2011-10-24,83,61,39,30,23,15,62,30,8,30.03,29.87,29.68,10,9,2,16,11,23,0.00,0,,207
2011-10-25,63,52,40,35,31,22,76,45,34,30.09,29.92,29.68,10,10,10,22,13,28,0.00,2,,351
2011-10-26,40,32,23,36,30,22,93,90,76,30.30,30.21,30.08,10,4,0,22,13,29,0.22,7,Fog-Rain-Snow,357
2011-10-27,48,32,15,26,20,12,89,70,32,30.27,30.23,30.14,10,10,10,10,8,,0.00,0,,271
2011-10-28,56,40,23,27,20,16,81,59,24,30.35,30.26,30.18,10,10,10,13,8,22,0.00,0,,280
2011-10-29,71,49,27,30,21,9,75,44,10,30.12,29.97,29.82,10,10,10,18,10,,0.00,0,,279
2011-10-30,61,45,29,30,26,23,82,57,26,30.24,30.15,30.03,10,10,10,15,10,22,0.00,0,,287
2011-10-31,74,55,35,29,27,21,73,42,14,30.10,29.94,29.81,10,10,10,18,11,23,0.00,0,,220